Flag for USA

Past Weather in Prudhoe Bay, Alaska, USA — Yesterday and Last 2 Weeks

Now
47 °F

Passing clouds.


Feels Like: 43 °F
Forecast: 39 / 33 °F
Wind: 7 mph from Northeast

Location: Deadhorse Airport

Current Time: Jul 4, 2020 at 11:10:09 pm

Latest Report: Jul 4, 2020 at 9:53 pm


Visibility: 10 mi

Pressure: 30.20 "Hg

Humidity: 64%

Dew Point: 35 °F

Location of Prudhoe BayLocation

Past Weather in Prudhoe Bay — Graph

°F

Prudhoe Bay Temperature Yesterday

Maximum temperature yesterday: 46 °F (at 1:53 pm)
Minimum temperature yesterday: 35 °F (at 2:53 am)
Average temperature yesterday: 41 °F

High & Low Weather Summary for the Past Weeks

 TemperatureHumidityPressure
High71 °F (Jun 21, 5:53 pm)97% (Jun 20, 12:53 am)30.38 "Hg (Jun 20, 12:53 am)
Low32 °F (Jun 23, 4:53 am)32% (Jun 21, 4:53 pm)29.51 "Hg (Jun 22, 5:53 am)
Average42 °F79%29.92 "Hg
* Reported Jun 19 9:15 pm — Jul 4 9:53 pm, Prudhoe Bay. Weather by CustomWeather, © 2020

Note: Actual official high and low records may vary slightly from our data, if they occured in-between our weather recording intervals... More about our weather records

Prudhoe Bay Weather History for the Previous 24 Hours

Scroll right to see more
 ConditionsComfort  
Time TempWeatherWind HumidityBarometerVisibility
9:53 pm
Sat, Jul 4
47 °FPassing clouds.7 mph64%30.20 "Hg10 mi
8:53 pm47 °FSunny.9 mph61%30.20 "Hg10 mi
7:53 pm48 °FSunny.9 mph44%30.21 "Hg10 mi
6:53 pm49 °FSunny.10 mph43%30.21 "Hg10 mi
5:53 pm50 °FSunny.12 mph39%30.21 "Hg10 mi
4:53 pm50 °FSunny.12 mph36%30.20 "Hg10 mi
3:53 pm50 °FSunny.10 mph39%30.21 "Hg10 mi
2:53 pm50 °FSunny.10 mph48%30.21 "Hg10 mi
1:53 pm51 °FSunny.8 mph44%30.21 "Hg10 mi
12:53 pm49 °FSunny.8 mph57%30.20 "Hg10 mi
11:53 am48 °FSunny.8 mph59%30.20 "Hg10 mi
10:53 am47 °FSunny.6 mph61%30.20 "Hg10 mi
9:53 am46 °FSunny.6 mph63%30.19 "Hg10 mi
8:53 am44 °FSunny.6 mph65%30.19 "Hg10 mi
7:53 am43 °FSunny.5 mph71%30.19 "Hg10 mi
6:53 am40 °FScattered clouds.5 mph80%30.19 "Hg10 mi
5:53 am39 °FScattered clouds.5 mph82%30.18 "Hg10 mi
5:36 am39 °FScattered clouds.3 mph82%30.18 "Hg10 mi
4:53 am37 °FPartly sunny.5 mph93%30.18 "Hg8 mi
4:23 am37 °FScattered clouds.5 mph89%30.18 "Hg10 mi
3:53 am38 °FScattered clouds.6 mph86%30.17 "Hg10 mi
2:53 am38 °FPassing clouds.8 mph86%30.16 "Hg10 mi
2:28 am39 °FPassing clouds.7 mph86%30.16 "Hg10 mi
1:53 am39 °FPassing clouds.7 mph86%30.16 "Hg10 mi
12:53 am40 °FPassing clouds.7 mph83%30.15 "Hg10 mi
11:53 pm
Fri, Jul 3
42 °FPassing clouds.7 mph76%30.14 "Hg10 mi
Weather by CustomWeather, © 2020

See weather overview